Simultaneous Nadir Overpasses (SNOs) Predictions

Prediction of SNOs between LANDSAT-8 and METOP-B Satellite Orbit:

Table of predicted SNOs for the next 14.0 days since TLE Epoch: 1/11/2020
Index Date (LANDSAT-8) Time (LANDSAT-8) Lat,Lon (LANDSAT-8) SZA (LANDSAT-8 ) Date (METOP-B) Time (METOP-B) Lat,Lon (METOP-B) SZA (METOP-B ) Distance(km) Time Diff (sec)
1 01/11/2020 14:44:15 81.09, -1.82 104.60 01/11/2020 14:43:08 81.09, -1.69 104.59 2.38 67
2 01/11/2020 15:33:41 -81.11, 166.15 75.36 01/11/2020 15:33:47 -81.11, 166.33 75.34 3.18 6
3 01/14/2020 10:18:30 81.09, 64.67 104.12 01/14/2020 10:17:32 81.09, 64.65 104.10 0.77 58
4 01/14/2020 11:07:56 -81.11,-127.33 75.84 01/14/2020 11:08:11 -81.11,-127.29 75.83 0.71 15
5 01/17/2020 05:52:46 81.07, 130.86 103.55 01/17/2020 05:51:56 81.08, 130.96 103.55 1.85 50
6 01/17/2020 06:42:12 -81.10, -61.12 76.41 01/17/2020 06:42:35 -81.11, -60.94 76.37 3.25 23
7 01/20/2020 01:27:00 81.09,-162.53 102.98 01/20/2020 01:26:18 81.09,-162.37 102.99 2.83 42
8 01/20/2020 02:16:26 -81.11, 5.51 76.97 01/20/2020 02:16:58 -81.11, 5.40 76.97 2.01 32
9 01/22/2020 21:01:15 81.10, -95.87 102.38 01/22/2020 21:00:41 81.10, -95.72 102.38 2.63 34




NCC Satellite Simultaneous Nadir Overpasses (SNOs) Prediction Service
